Regional Weather Roundup
Issued by NWS

Home | Current Version | Previous Version | Text Only | Print | Product List | Glossary Off
Versions: 1 2 3 4 5 6 7 8 9 10 11 12 13 14 15 16 17 18 19 20 21 22 23 24 25 26 27 28 29 30 31 32 33 34 35 36 37 38 39 40 41 42 43 44 45 46 47 48 49 50

000
ASUS43 KMKX 180710
RWRWI

WISCONSIN REGIONAL WEATHER ROUNDUP
NATIONAL WEATHER SERVICE MILWAUKEE/SULLIVAN WI
200 AM CDT SAT APR 18 2015

NOTE: "FAIR" INDICATES FEW OR NO CLOUDS BELOW 12,000 FEET WITH NO
SIGNIFICANT WEATHER AND/OR OBSTRUCTIONS TO VISIBILITY.

WIZ001-002-006>008-014>016-023>028-180800-
NORTHWEST WISCONSIN

CITY           SKY/WX    TMP DP  RH WIND       PRES   REMARKS
SUPERIOR ARPT  CLEAR     48  31  52 NE9       30.13R
ASHLAND        CLEAR     47  32  56 NE10      30.14R
HAYWARD        CLEAR     52  27  38 NE16G24   30.09R
SIREN          CLEAR     53  24  31 NE5       30.08R
CUMBERLAND     CLEAR     50  28  43 N7        30.07R
RICE LAKE      CLEAR     40  34  78 CALM      30.08R
CHETEK         CLEAR     43  37  81 N7        30.06R
LADYSMITH      CLEAR     52  30  42 N10       30.07R
EAU CLAIRE     CLEAR     45  31  58 CALM      30.03R
MENOMONIE      CLEAR     46  37  70 W3        30.05R
NEW RICHMOND   CLEAR     42  40  93 CALM      30.05S
OSCEOLA        CLEAR     41  33  73 N3        30.09R
$$

WIZ003>005-009-010-017-018-180800-
NORTH CENTRAL WISCONSIN

CITY           SKY/WX    TMP DP  RH WIND       PRES   REMARKS
MANITOWISH WTR CLEAR     49  30  47 N9        30.09R
ARBOR VITAE    CLEAR     52  28  39 N15G25    30.07R
WOODRUFF       CLEAR     52  28  39 N15G25    30.07R
RHINELANDER    CLEAR     51  28  41 N7        30.06R
EAGLE RIVER    CLEAR     49  26  40 N12G17    30.07R
LAND O LAKES   CLEAR     49  29  46 N13       30.09R
PHILLIPS       CLEAR     50  28  43 N12       30.06R
TOMAHAWK       CLEAR     47  28  47 CALM      30.06R
MEDFORD        CLEAR     44  29  56 CALM      30.04S
MERRILL        CLEAR     43  39  85 CALM      30.03S
$$

WIZ029-030-035-036-043>047-180800-
CENTRAL WISCONSIN

CITY           SKY/WX    TMP DP  RH WIND       PRES   REMARKS
WAUSAU         CLEAR     51  36  56 NW6       30.02R
MOSINEE        CLEAR     54  32  43 N6        30.04R
MARSHFIELD     CLEAR     53  33  46 N8        30.03S
STEVENS POINT  CLEAR     41  37  84 CALM      30.03S
WAUPACA        CLEAR     49  42  79 CALM      30.01F
WAUTOMA        PTCLDY    45  42  89 CALM      30.03R
WISC RAPIDS    CLEAR     49  37  63 SW3       30.04R
CAMP DOUGLAS   MOCLDY    47  47 100 W5        30.03R
$$

WIZ011>013-019>022-031-037>040-048>050-180800-
NORTHEAST WISCONSIN

CITY           SKY/WX    TMP DP  RH WIND       PRES   REMARKS
ANTIGO         CLEAR     41  35  77 CALM      30.03R
SHAWANO        CLEAR     49  44  82 CALM      30.02R
OCONTO         CLEAR     38  38 100 CALM      30.00R
STURGEON BAY   CLEAR     46  36  66 CALM      30.01S
GREEN BAY      CLEAR     49  43  80 NE10      30.00R
MANITOWOC      FAIR      55  43  63 W7        29.99S
APPLETON       PTCLDY    55  41  58 NW10      30.01S
CLINTONVILLE   CLEAR     45  39  81 CALM      30.01S
OSHKOSH        PTCLDY    58  43  57 W7        30.00S
$$

WIZ032>034-041-042-053>061-180800-
SOUTHWEST WISCONSIN

CITY           SKY/WX    TMP DP  RH WIND       PRES   REMARKS
LA CROSSE      PTCLDY    54  48  80 CALM      30.03R
SPARTA         MOCLDY    44  39  83 CALM      30.05S
VIROQUA        PTCLDY    58  41  52 N6        30.04S
BOSCOBEL       CLEAR     48  44  86 CALM      30.03R
PRAIRIE DU CHI CLEAR     52  44  74 CALM      30.02R
PLATTEVILLE    MOCLDY    58  44  58 N3        30.02S
$$

WIZ056-057-062-063-064-067-068-180800-
SOUTH CENTRAL WISCONSIN

CITY           SKY/WX    TMP DP  RH WIND       PRES   REMARKS
REEDSBURG      PTCLDY    51  46  83 CALM      30.03S
BARABOO/DELLS  PTCLDY    52  42  67 CALM      30.03S
LONE ROCK      CLEAR     47  43  86 SW5       30.02S
MINERAL POINT  CLEAR     61  41  48 CALM      30.02S
MADISON        CLEAR     51  45  79 MISG      30.01S
MIDDLETON      CLEAR     50  45  81 W3        30.02S
WATERTOWN      PTCLDY    47  45  91 CALM      30.01S
MONROE         CLEAR     64  45  48 NW6       30.01S
JANESVILLE     CLEAR     52  43  71 CALM      30.01S
$$

WIZ051-052-058>065-066-070>072-180800-
SOUTHEAST WISCONSIN

CITY           SKY/WX    TMP DP  RH WIND       PRES   REMARKS
MILWAUKEE      PTCLDY    50  41  71 CALM      30.00F
WAUKESHA       CLEAR     45  41  87 CALM      30.02S
MILWAUKEE/TIMM PTCLDY    52  39  62 CALM      30.01S
RACINE         CLEAR     52  43  71 W5        30.01S HAZE
BURLINGTON     CLEAR     45  43  93 CALM      30.00F
KENOSHA        CLEAR     50  44  80 W5        30.00S HAZE
FOND DU LAC    MOCLDY    52  42  69 CALM      30.00S
SHEBOYGAN      PTCLDY    51  42  71 W7        30.00R
WEST BEND      PTCLDY    50  41  71 CALM      30.01S
JUNEAU         PTCLDY    52  43  72 CALM      30.03R
$$

LSZ147-162-180800-
LAKE SUPERIOR

STATION/POSITION TIME  TEMP    WIND        PRES    WAVE
                       AIR SEA DIR/SP/G            HT/PER
                 (UTC) (F)     (DEG/KT/KT) (MB)    (FT/S)
DEVILS ISLAND    0700   44      30/ 14/ 16 1021.8R
PORT WING        0600   47      40/ 14/ 18 1020.0R
SAXON HARBOR     0640   48      40/ 12/ 15 1020.0R
$$

LMZ867-665-643>646-180800-
LAKE MICHIGAN

STATION/POSITION TIME  TEMP    WIND        PRES    WAVE
                       AIR SEA DIR/SP/G            HT/PER
                 (UTC) (F)     (DEG/KT/KT) (MB)    (FT/S)
CHAMBERS ISLAND  0600   39     150/  1/  3 1015.6F
NORTHPORT PIER   0700   41      CALM  /  7 1015.2S
SISTER BAY       0502   45     200/  2/  5   N/A
KEWAUNEE LAKESHO 0612   52     310/  7/  7 1014.4R
SHEBOYGAN LAKESH 0700   58     270/  8/  9 1016.0F
PORT WASHINGTON  0600   47     260/  2/  3 1016.6
MILWAUKEE LAKESH 0600   44     140/  1/  2   N/A
KENOSHA   LAKESH 0700   49     360/  2/  4 1015.9S
$$

TC  - TEMPERATURE IN CELSIUS
VSB - VISIBILITY IN STATUTE MILES
WCI - WIND CHILL INDEX
HX  - HEAT INDEX



USA.gov is the U.S. government's official web portal to all federal, state and local government web resources and services.